Starlink 32833

operational
NORAD ID: 62873 Int'l Des: 2025-022 Owner: SPXS Country: US Constellation: starlink
LEOCIRCULAR

Starlink 32833について

説明を読み込み中...

リアルタイム位置

3D地球を読み込み中...

次回通過

高度履歴

Altitude vs Time

uPlot chart will show altitude changes over time

軌道要素

1 62873U 25022V 26033.04328077 .00025946 00000-0 88500-3 0 9992
2 62873 53.1606 295.1129 0001913 55.1506 304.9674 15.30202903 56441
Epoch: Feb 2, 2026 • Age: 28 hours

現在のステータス

高度 494.5 km
速度 7.62 km/s
衛星直下点 -53.06°S, 0.81°E
打ち上げ日 Feb 2, 2025
運用期間 0.9 years
タイプ internet

技術仕様

分類 Payload
質量 730.00 kg
乾燥質量 700.00 kg
総質量 730.00 kg
長さ 0.30 m
直径 4.10 m
スパン 29.00 m
形状 Box + pan
製造者 SPXS
バスタイプ Starlink V2M
フェーズステータス In Orbit
所有者/国 SPXS/US

大規模コンステレーション

Loading constellations...